伽利略0205星导航星座 (GSAT0205 (GALILEO 9))

导读 | 星芒AI

GSAT0205(伽利略9号,Galileo 9)是欧洲伽利略卫星导航系统的一部分,由空中客车防务与航天公司制造。该卫星于2023年发射,旨在增强全球定位服务的精度和可靠性。作为中地球轨道卫星,其运行高度约23,222公里,设计寿命12年。Galileo 9与其他伽利略卫星协同工作,为欧洲及全球用户提供高精度的定位、导航和授时服务,广泛应用于交通、通信、应急响应等领域。

基本信息
目录编号:
40889
目录名称:
GALILEO 9 (205)
国际标识:
2015-045A
轨道中心:
EARTH
卫星名称:
伽利略0205星
卫星全名:
伽利略0205星导航星座 (GSAT0205 (GALILEO 9))
卫星状态:
在轨 (已飞行3690 天)
发射日期:
2015-09-11 UTC
国别 :
(ESA)
星等 :
--
轨道信息
数据来源 国际轨道数据 AOE轨道数据
星历时间 2025-10-16T13:12:52+0800
1天前
查看轨道信息
2025-10-13T21:00:00+0800
4天前
查看轨道信息
半长轴 29600.448km 29600.448km
偏心率 0.0004519 0.000442
轨道倾角 55.028° 55.027°
近地点辐角 24.772° 23.633°
升交点赤经 228.346° 228.419°
平近点角 335.225° 134.294°
近地点 23208.936km 23209.229km
远地点 23235.69km 23235.397km
周期 844.709分钟 844.709分钟
每日圈数 1.704729 1.704729
详细信息
平衡模式:
三轴稳定
覆盖范围:
全球
运营商:
欧盟空间计划局
运营商所在国:
法国大都会
使用方式:
暂无
卫星简介
伽利略定位系统(Galileo)是一个全球导航卫星系统,于2016年投入使用由欧盟通过ESA创建,由欧盟空间计划局(EUSPA)运营。该系统有两个地面操控站,并且在高纬度地区提供比其他系统更好的定位服务。该卫星仍在工作。
2D轨道图
3D轨道图
轨道高度分析图
轨道倾角分析图
轨道综合分析图
查看轨道综合分析图